Hourly Weather Roundup
Issued by NWS Central Illinois

Home | Current Version | Previous Version | Text Only | Print | Product List | Glossary On
Versions: 1 2 3 4 5 6 7 8 9 10 11 12 13 14 15 16 17 18 19 20 21 22 23 24 25 26 27 28 29 30 31 32 33 34 35 36 37 38 39 40 41 42 43 44 45 46 47 48 49 50
000
NZUS43 KILX 271910
HWRILX

AREA WEATHER ROUNDUP
NATIONAL WEATHER SERVICE, LINCOLN IL
200 PM CDT FRI MAY 27 2016


CITY           SKY/WX    TMP DP  RH WIND       PRES   REMARKS
BLOOMINGTON    PTSUNNY   77  68  73 S24       29.87F
CHAMPAIGN      CLOUDY    81  65  58 S21G28    29.89F HX  83
DANVILLE       CLOUDY    82  66  59 S16G23    29.87F HAZE    HX  84
DECATUR        PTSUNNY   78  66  66 S20G26    29.87S HX  80
EFFINGHAM      CLOUDY    78  71  79 SE12G18   29.92R
FLORA          PTSUNNY   79  70  74 S14       29.91F HX  82
GALESBURG      CLOUDY    72  66  83 S9G16     29.81F
JACKSONVILLE   CLOUDY    76  68  76 S16G23    29.82S
LACON          CLOUDY    75  64  68 S17G23    29.83R
LAWRENCEVILLE  PTSUNNY   84  68  58 S21       29.93F HX  87
LITCHFIELD     CLOUDY    73  66  80 S17G25    29.87S
$$


CITY           SKY/WX    TMP DP  RH WIND       PRES   REMARKS
LINCOLN        CLOUDY    79  70  72 S12G23    29.84S HX  82
MACOMB         CLOUDY    72  68  87 S14       29.83S
MATTOON        MOSUNNY   78  66  66 S18       29.89S HX  80
MT CARMEL AP   MOSUNNY   82  69  62 S18       29.92F HX  85
OLNEY-NOBLE AP PTSUNNY   79  70  73 S16       29.91F HX  81
PARIS          CLOUDY    83  69  63 S12       29.91F HX  86
PEORIA         CLOUDY    76  66  71 S16       29.83F
PONTIAC        CLOUDY    82  66  57 S25G31    29.86F HX  84
RANTOUL        CLOUDY    82  66  58 S18       29.89F HX  84
ROBINSON       PTSUNNY   80  69  68 S15G21    29.92F HX  82
SPRINGFIELD    CLOUDY    80  68  66 S14G28    29.84S HX  83
TAYLORVILLE    CLOUDY    75  68  79 S15G23    29.87R
$$

...REGIONAL REPORTS...


CITY           SKY/WX    TMP DP  RH WIND       PRES   REMARKS
CHICAGO O`HARE CLOUDY    81  63  54 S20G25    29.85F HX  82
KANKAKEE       PTSUNNY   83  66  55 S13G20    29.88F HX  85
MOLINE         LGT RAIN  73  66  78 S10G20    29.79F
MOUNT STERLING CLOUDY    74  68  80 S13       29.80S
MOUNT VERNON   CLOUDY    79  70  73 S8        29.90F HX  81
PITTSFIELD     CLOUDY    76  70  80 S14G22    29.82S
QUINCY         CLOUDY    76  68  76 S12       29.79S
ROCKFORD       CLOUDY    80  62  54 S20G25    29.83F HX  81
$$


CITY           SKY/WX    TMP DP  RH WIND       PRES   REMARKS
BURLINGTON     CLOUDY    72  68  87 S12       29.78F
CEDAR RAPIDS   PTSUNNY   78  67  68 S14G23    29.73F HX  80
DES MOINES     PTSUNNY   72  64  76 W9        29.75F
KIRKSVILLE     LGT RAIN  81  67  62 SW15G23   29.77S HX  83
OTTUMWA        MOSUNNY   80  65  59 SW15G25   29.73S HX  82
ST LOUIS       CLOUDY    75  67  76 S10       29.85S
$$


CITY           SKY/WX    TMP DP  RH WIND       PRES   REMARKS
TERRE HAUTE    MOSUNNY   82  66  58 S15       29.92F HX  84
EVANSVILLE     PTSUNNY   82  65  56 S13       29.94F HX  84
INDIANAPOLIS   CLOUDY    82  65  56 SE13      29.94F HX  84
LAFAYETTE      CLOUDY    81  63  54 S12G18    29.91F HX  82
MADISON        CLOUDY    78  65  63 S9        29.81F HX  80
MILWAUKEE      PTSUNNY   75  66  73 SE14      29.85F
$$






USA.gov is the U.S. government's official web portal to all federal, state and local government web resources and services.